Wind_Speed
29 31 34 36 38 40 41 41 42 44 42 39 38 37 36 35 34 34 36 37 38 37 36 37 38 39 40 41 42 43 44 44 44 45 46 46 45 44 43 42 40 39 37 35 33 30 28 26 25 23 21 19 17 14 13 12 10 9 8 7 7 6 6 7 7 6 6 7 8 9 9 8 7 6 5 5 5 5 4 3 2 2 1 2 3 4 5 6
29 31 35 37 38 42 43 43 45 45 41 38 37 37 37 36 35 35 35 36 36 37 36 37 37 39 40 41 41 42 42 43 44 45 45 45 45 44 43 42 40 38 37 34 33 30 28 26 25 23 21 20 17 15 13 12 10 9 7 6 7 7 7 8 7 6 6 7 8 9 9 9 8 6 5 5 5 5 5 4 3 2 2 1 1 3 4 4
30 32 35 37 39 43 45 45 46 45 41 38 38 38 39 38 37 36 36 35 35 35 36 37 37 38 39 40 41 41 41 42 43 44 44 44 44 43 42 41 40 38 36 35 33 31 29 27 25 23 21 19 17 15 14 12 11 10 8 7 8 8 9 9 8 7 8 8 8 9 10 9 8 7 6 5 5 5 5 5 4 3 2 1 1 2 3 4
31 32 35 37 40 44 46 47 48 45 42 40 39 39 40 40 39 37 36 35 35 35 36 37 37 38 39 39 40 41 42 42 43 43 43 43 43 42 42 41 40 38 36 35 33 31 29 27 25 23 21 19 17 15 14 13 12 11 9 9 10 10 11 11 10 10 9 9 9 9 10 9 9 8 7 6 5 5 5 5 5 4 3 1 0 1 2 3
33 33 35 39 41 44 47 48 49 46 43 42 40 40 40 40 40 38 37 36 36 36 36 37 37 38 38 39 39 40 42 42 43 43 42 42 42 42 41 41 39 38 36 34 32 31 29 27 24 23 21 20 18 16 15 14 13 13 10 11 12 12 12 11 10 11 10 10 10 10 10 10 10 8 7 6 6 5 6 6 6 5 3 2 0 0 1 2
35 35 36 40 42 45 48 50 50 47 44 43 41 40 40 40 40 40 39 37 36 36 36 36 37 38 38 39 39 40 41 41 42 42 41 41 42 41 41 40 39 38 36 35 33 31 29 27 24 23 21 20 18 17 16 15 15 14 12 12 14 14 13 12 11 11 12 11 11 11 11 11 10 8 6 6 6 6 6 6 6 5 4 3 1 1 0 1
37 36 37 41 43 45 49 51 50 47 46 45 43 41 41 40 40 40 40 38 37 37 36 36 37 37 38 39 39 40 41 40 41 41 40 40 40 41 41 40 39 38 36 35 33 31 29 27 25 24 21 20 18 17 17 17 17 16 14 14 15 16 15 14 13 13 14 13 12 12 12 11 10 9 7 7 7 6 7 6 6 6 4 3 2 2 1 1
38 38 39 42 44 45 50 52 50 49 47 47 45 43 42 42 41 41 41 39 38 38 37 36 36 37 38 38 39 40 40 39 40 40 39 39 39 39 40 40 39 38 36 35 33 31 30 28 26 24 22 21 20 19 19 19 18 17 16 16 17 17 16 16 15 15 15 14 13 12 12 12 11 9 7 8 7 6 7 7 6 6 5 4 3 3 2 1
40 40 40 42 44 46 50 53 51 50 49 47 46 44 43 43 43 43 42 40 39 38 38 37 36 37 37 38 38 39 39 38 38 39 38 38 38 38 39 39 38 37 36 35 33 32 31 29 27 25 24 23 22 22 22 21 20 18 18 19 19 19 18 17 16 16 16 15 14 13 13 13 11 10 8 8 8 7 7 7 6 6 5 5 4 3 2 1
42 42 42 43 45 45 50 54 52 50 49 48 46 45 44 43 43 43 43 42 41 39 39 38 37 36 37 37 38 38 38 38 38 38 38 38 38 38 38 38 38 37 36 35 34 33 31 29 28 27 26 25 24 24 23 22 21 20 20 21 20 20 19 18 18 18 17 16 16 14 14 13 12 10 8 8 8 8 8 8 7 7 6 6 5 4 3 1
43 44 43 44 46 45 49 55 54 51 50 48 47 45 44 43 43 43 43 43 43 41 40 39 37 37 35 35 37 37 38 38 38 38 38 38 38 38 38 38 38 37 36 36 34 33 32 30 29 28 27 26 25 25 24 23 22 22 22 22 21 20 19 19 19 19 18 18 17 15 14 13 12 10 8 9 9 8 8 9 8 8 7 6 6 5 4 2
45 45 45 45 47 47 48 54 56 52 51 49 47 46 45 44 43 42 43 43 44 43 41 39 38 37 35 35 35 36 38 39 38 38 38 38 38 38 38 38 38 37 37 36 35 34 32 31 30 29 28 27 26 26 25 24 23 23 23 23 22 20 20 21 20 19 19 18 17 16 14 14 13 11 9 10 10 8 9 9 9 8 7 7 6 6 5 3
47 47 46 47 48 48 48 52 56 54 52 50 48 47 46 45 44 44 43 43 43 43 42 40 38 37 36 35 35 35 36 38 38 38 38 38 38 38 38 38 38 38 37 36 35 33 32 31 30 29 28 28 28 27 26 25 24 24 24 24 22 22 22 22 21 21 20 19 18 17 15 16 15 12 11 11 10 10 9 9 9 8 8 7 7 6 5 4
48 48 48 48 49 50 49 51 54 55 53 51 49 48 47 47 47 46 45 44 43 42 42 40 38 37 36 36 36 35 35 36 36 37 37 37 37 37 38 38 38 38 37 36 34 33 32 31 30 30 29 29 28 27 27 26 26 25 25 25 24 23 23 23 22 22 21 20 19 18 17 18 15 12 12 13 12 11 10 10 9 9 8 8 8 8 7 5
49 49 49 49 50 51 50 51 53 54 54 52 51 50 49 50 49 48 47 45 44 42 42 41 39 38 37 36 36 36 35 35 35 35 36 36 36 37 37 37 37 37 36 35 34 33 32 31 31 30 30 29 29 28 27 27 26 26 25 25 24 24 24 24 23 23 22 21 20 19 18 19 16 14 15 14 13 13 12 11 10 9 9 9 9 9 8 6
49 50 49 50 51 52 52 52 53 54 55 53 52 51 51 52 52 51 50 48 46 43 42 41 40 39 38 37 37 36 36 35 35 35 35 35 36 36 37 37 36 36 35 34 33 33 33 32 32 31 30 30 30 29 28 27 27 26 25 25 25 25 25 25 24 23 23 22 21 20 20 19 17 16 17 16 15 14 13 12 11 10 10 10 11 11 10 8
50 50 50 50 51 53 53 53 54 55 55 54 53 53 53 54 53 52 51 49 47 45 43 42 41 40 39 38 37 37 36 35 35 35 36 36 36 36 37 37 37 36 35 35 34 34 33 33 32 31 30 30 30 29 28 27 26 26 26 26 26 26 25 25 24 24 24 23 22 21 20 20 19 18 18 17 16 15 14 13 12 12 12 12 12 12 11 10
50 50 51 51 52 53 54 55 56 57 57 55 55 55 55 55 55 53 52 50 48 46 45 43 42 41 40 39 38 37 37 36 36 36 36 36 37 37 37 37 37 37 36 36 35 35 34 33 32 31 31 30 29 27 27 25 26 26 26 26 26 26 25 25 25 24 24 24 23 22 20 21 21 20 19 19 18 17 16 15 13 13 13 13 13 13 12 11
50 51 51 52 52 53 55 56 57 58 59 57 56 57 57 57 56 55 53 50 49 47 46 44 43 41 39 39 38 38 38 38 37 36 36 36 37 37 37 37 37 37 36 35 35 34 34 33 32 31 29 28 27 26 27 27 27 27 27 27 27 26 26 25 25 25 25 24 24 23 22 22 21 20 20 21 20 18 17 16 15 15 15 15 14 13 13 13
49 50 51 52 53 53 54 56 57 58 59 59 58 58 58 59 58 57 54 52 50 48 47 45 43 42 39 39 39 38 37 38 37 37 36 36 36 37 37 37 36 36 36 35 34 33 33 32 31 30 29 28 28 28 29 29 28 28 27 28 27 27 27 26 27 27 26 26 25 25 24 23 22 22 23 23 21 18 17 17 17 17 16 16 15 14 15 15
49 51 52 53 53 53 54 55 57 57 59 60 59 59 59 59 59 57 55 53 52 50 49 47 45 44 41 40 39 38 37 37 37 37 36 36 36 36 36 36 36 36 35 35 34 33 33 32 31 30 30 30 30 30 30 30 29 28 28 28 28 28 27 27 28 28 28 27 27 27 26 24 23 24 24 24 22 18 19 19 18 18 17 16 15 16 17 16
51 52 53 54 54 54 54 55 57 58 59 59 60 60 59 60 59 58 56 54 52 52 51 49 47 46 43 41 40 39 38 37 37 36 36 36 36 36 36 36 36 36 35 35 34 34 33 32 31 31 30 30 30 30 30 30 29 29 28 28 28 28 28 28 29 29 29 28 28 28 28 24 24 25 25 25 23 20 21 21 20 19 18 17 17 18 18 17
51 53 54 55 54 55 55 55 57 58 59 59 61 61 61 61 61 60 58 56 53 52 52 50 49 47 45 43 41 40 39 38 37 36 35 35 35 36 36 35 36 36 35 35 34 34 33 32 32 31 31 30 31 31 31 31 30 29 29 29 29 29 29 29 29 29 29 29 29 30 29 25 24 25 26 26 24 21 23 23 21 20 19 19 19 19 19 19
50 52 54 55 55 55 55 55 56 57 59 60 61 62 62 62 63 63 61 58 56 54 53 51 50 48 46 45 43 42 41 40 38 37 36 36 35 35 35 36 36 36 35 35 35 34 34 34 33 32 32 31 31 31 31 31 31 30 30 30 31 30 31 30 30 30 30 30 30 31 31 27 25 27 27 27 25 23 24 24 22 22 21 21 21 21 21 22
50 51 54 55 55 55 55 55 56 57 58 60 61 62 63 63 63 64 63 61 58 55 54 53 52 51 48 46 45 44 43 42 41 39 38 38 37 37 36 36 36 36 36 35 35 35 34 34 33 32 32 31 31 31 30 30 30 31 31 32 32 32 32 32 31 31 31 31 31 31 32 28 25 28 28 27 27 25 26 26 24 23 23 23 23 23 24 24
50 51 53 55 55 56 55 55 56 56 57 59 60 61 62 63 63 63 64 63 61 58 56 55 54 53 50 48 47 46 46 45 43 41 40 39 39 38 38 37 37 37 36 35 35 35 34 33 33 33 32 31 31 30 30 30 30 31 32 32 33 33 33 33 32 32 32 32 31 31 33 29 25 27 27 27 28 27 28 28 26 25 25 25 25 25 25 25
49 50 52 54 56 56 56 56 56 56 57 58 59 60 61 62 63 63 63 65 65 60 57 56 55 54 52 50 49 47 47 47 45 44 42 41 40 39 39 38 37 37 37 36 35 34 33 32 33 32 32 31 31 30 30 30 30 31 31 32 33 33 33 33 33 33 34 34 33 32 33 32 26 24 26 28 28 29 29 29 27 26 27 27 27 27 27 27
47 48 49 52 55 56 56 55 56 56 56 57 58 59 60 61 62 62 62 65 67 63 60 58 56 55 53 52 50 49 48 47 46 46 44 43 42 41 40 39 38 38 37 36 35 34 33 32 33 32 32 32 31 31 31 31 32 32 31 32 33 33 34 34 35 35 35 35 35 33 33 35 29 22 24 28 28 28 29 28 28 28 28 28 28 29 29 30
45 46 47 49 52 55 55 55 55 55 55 56 56 58 59 60 61 61 62 65 66 64 62 60 58 57 55 53 52 50 49 49 48 48 46 45 44 43 42 40 40 39 39 38 37 35 34 34 34 34 34 33 32 33 33 33 33 32 32 32 33 33 34 35 36 36 37 37 36 34 34 37 34 25 25 27 28 28 29 28 29 29 29 29 29 30 32 32
45 46 46 47 49 52 54 54 55 55 55 56 56 57 59 60 61 61 63 66 66 65 64 62 60 58 57 55 54 52 52 51 50 50 49 48 47 45 44 43 42 41 40 39 38 37 35 35 35 35 34 33 33 33 33 34 34 33 34 34 34 34 34 35 36 36 37 38 36 36 36 37 38 32 26 27 29 29 30 30 30 30 30 31 31 33 33 34
45 46 46 46 48 49 51 53 54 54 55 56 56 57 59 60 61 63 64 66 65 64 65 64 62 60 58 57 55 54 53 53 52 52 51 50 49 48 47 46 44 43 43 41 40 38 37 35 35 34 34 33 33 33 34 34 35 35 36 36 36 35 35 35 35 36 38 38 37 38 37 37 39 35 29 29 31 30 31 31 31 31 32 33 34 35 35 36
42 46 47 48 48 48 50 52 53 54 54 55 56 57 58 60 63 64 64 64 64 65 64 63 62 60 59 58 57 55 54 53 53 53 52 51 50 48 47 46 45 44 44 42 41 40 38 37 36 35 35 35 35 35 36 36 37 37 37 37 37 36 36 36 36 37 38 37 38 39 39 39 38 35 34 34 33 31 31 32 32 33 34 35 36 37 37 38
39 41 45 49 50 49 49 50 52 54 54 55 56 57 58 61 63 63 63 63 64 65 63 62 62 61 59 59 58 57 55 54 53 52 52 52 51 50 48 47 45 45 44 43 42 41 41 40 39 38 38 38 37 37 37 37 37 37 37 38 38 37 38 38 38 39 38 37 39 40 40 40 37 34 36 37 36 34 32 33 34 35 36 37 38 39 40 40
38 38 41 46 48 50 50 50 51 52 54 55 56 57 59 61 61 60 61 63 64 64 62 62 62 61 61 60 58 57 56 56 55 53 53 52 52 52 50 49 48 47 46 45 45 44 44 44 42 41 41 40 39 39 39 39 39 39 39 39 39 39 39 40 40 40 39 39 41 41 41 40 37 35 35 36 38 38 37 36 37 38 38 39 40 41 41 42
40 40 41 42 44 46 49 51 53 52 53 54 55 58 60 61 59 60 61 62 63 63 62 61 62 61 61 60 59 58 57 56 56 55 55 54 53 52 51 50 49 48 48 47 47 47 46 46 44 44 44 42 42 42 42 42 42 42 41 41 40 40 41 42 42 42 41 42 42 42 42 40 37 36 35 36 38 39 39 39 39 39 40 40 41 42 42 43
45 44 44 43 43 44 45 47 51 54 54 54 55 57 59 58 58 59 60 60 61 62 62 61 62 62 61 61 60 59 59 58 57 57 57 56 55 54 53 51 50 49 48 48 48 48 48 48 46 46 45 45 45 45 44 44 44 43 43 42 41 42 42 43 44 43 44 45 45 43 43 40 39 39 37 37 38 39 41 43 41 41 42 42 43 43 44 44
52 50 48 47 45 46 46 45 47 50 53 56 57 57 56 57 57 57 57 58 59 60 61 61 61 61 61 61 60 60 59 59 59 59 58 57 57 56 55 54 53 52 50 49 50 50 50 50 49 48 48 47 47 47 46 46 46 46 45 44 44 45 45 45 46 47 47 48 47 44 43 41 40 41 39 39 40 40 42 44 44 44 45 45 45 45 45 45
55 53 52 50 47 47 49 49 47 45 48 53 55 57 57 56 56 56 56 57 58 59 60 60 60 60 59 59 59 59 59 59 59 58 58 58 58 56 54 54 54 53 52 52 52 52 52 52 52 51 50 50 49 50 50 49 48 48 48 47 47 48 48 48 48 49 48 49 49 46 45 43 41 41 40 41 42 42 43 44 45 46 47 48 48 48 48 47
55 53 53 51 50 49 49 51 51 48 49 49 48 52 56 57 57 57 56 56 56 58 59 59 59 59 59 58 57 57 57 58 58 58 57 57 57 56 54 54 53 52 52 52 52 53 53 53 54 54 52 52 51 52 52 51 51 50 49 49 49 49 50 50 50 51 50 51 51 50 49 47 42 40 41 43 43 43 44 45 45 47 48 49 49 49 49 49
56 54 53 52 51 51 51 52 51 51 53 50 46 47 50 52 55 56 57 57 57 57 58 58 59 58 58 58 58 57 57 57 57 57 57 57 57 56 55 54 54 53 52 53 53 53 54 54 55 55 55 55 54 53 53 52 52 51 51 51 51 51 52 52 53 53 53 54 54 55 54 50 44 42 43 44 44 45 46 47 47 48 48 49 49 49 50 51
58 57 55 54 53 52 53 55 54 52 52 51 48 47 47 48 49 51 52 55 57 58 58 58 58 58 57 57 57 58 57 57 57 57 58 58 57 57 57 56 55 54 54 55 56 56 56 57 58 58 59 58 55 54 53 53 53 53 53 54 53 54 55 55 56 57 56 57 56 58 58 51 46 46 46 46 47 47 47 48 49 50 49 50 51 51 52 53
58 59 58 57 55 55 55 57 59 58 56 54 52 51 49 49 49 48 48 50 53 55 56 57 58 57 57 57 57 56 57 57 58 58 59 58 57 57 57 57 56 56 56 57 57 56 55 57 59 60 60 60 58 58 57 57 56 56 56 57 56 58 59 59 61 60 59 60 58 60 60 51 46 48 47 47 48 48 48 49 50 50 50 51 52 52 53 55
57 59 60 60 58 58 59 60 60 60 59 58 57 56 55 53 52 51 51 51 51 51 52 54 56 58 58 58 57 57 57 56 57 57 57 57 57 57 57 57 57 57 57 58 58 57 57 59 62 63 63 62 61 62 61 61 61 61 61 61 60 60 60 60 60 60 61 62 60 62 62 52 47 50 50 49 50 50 50 51 50 50 51 52 53 53 54 55
55 57 59 60 60 60 62 62 60 59 59 58 58 58 58 57 55 55 55 54 52 51 50 50 52 54 55 56 56 57 57 57 57 57 56 56 56 56 57 58 57 57 57 57 57 57 57 59 61 63 64 65 65 66 66 66 66 66 65 63 61 59 58 58 58 58 60 61 59 62 63 55 51 53 53 53 53 53 52 52 52 53 54 55 55 54 55 55
53 55 57 59 60 61 63 64 63 61 61 61 60 59 58 58 57 56 56 57 56 55 53 52 51 50 50 51 52 52 53 54 56 57 57 57 57 57 57 57 57 56 56 56 55 55 56 58 59 61 64 67 68 68 67 64 63 62 61 60 59 58 57 57 57 57 60 61 60 64 64 58 55 56 56 57 56 54 54 53 54 55 55 56 57 56 56 57
52 53 56 58 60 61 62 64 64 64 63 64 64 64 63 62 60 57 56 58 59 59 57 56 55 53 52 50 49 49 50 51 52 55 57 57 58 59 58 58 57 57 57 56 56 56 57 58 59 61 63 65 66 64 62 59 58 59 59 58 58 58 57 57 58 60 63 63 63 65 64 61 59 58 57 57 55 55 55 55 55 57 58 58 58 57 57 58
50 51 52 55 57 60 61 62 64 64 64 64 64 65 65 65 64 62 60 59 60 61 61 61 60 59 58 55 51 51 53 53 53 52 53 54 55 56 57 58 57 57 57 57 58 59 60 61 61 62 62 63 63 63 62 62 61 61 61 60 60 60 60 61 63 64 64 63 65 64 62 62 61 58 56 55 54 56 56 56 57 59 60 59 59 58 58 59
48 49 50 52 55 57 59 60 61 61 62 63 62 62 62 63 64 64 63 61 61 62 64 65 64 62 61 59 57 56 56 57 56 54 52 51 52 53 54 55 56 56 56 57 58 60 62 63 63 63 63 63 64 65 65 65 64 64 63 63 63 63 63 65 66 65 62 64 66 63 60 63 61 57 56 55 54 55 56 56 57 59 59 60 61 62 62 62
46 47 48 50 52 55 57 58 59 60 61 61 62 62 61 60 60 61 61 62 63 62 63 65 64 63 63 62 62 61 60 60 59 57 55 54 53 53 54 54 54 55 55 55 56 57 59 61 62 63 64 64 65 65 66 66 67 67 67 67 66 66 66 67 67 65 65 67 67 64 65 65 60 57 58 56 56 58 58 59 60 61 62 63 64 65 65 65
46 46 47 49 50 52 54 56 56 58 59 61 62 63 63 61 60 60 60 61 62 62 62 63 62 63 65 65 65 64 63 61 60 58 57 56 54 54 55 56 57 56 55 56 56 55 56 57 59 61 62 63 63 63 64 65 66 67 68 68 68 69 69 69 69 68 68 69 68 66 68 65 57 57 58 55 57 60 60 60 62 63 64 65 64 65 66 66
46 47 47 48 49 50 52 54 54 55 57 60 61 62 62 63 62 62 63 63 62 61 60 59 59 61 63 65 66 65 62 61 60 58 57 56 55 55 55 56 57 55 53 54 56 55 55 56 56 57 58 60 59 60 61 62 63 65 67 68 68 68 69 68 67 66 66 66 65 65 66 60 54 56 57 54 56 59 57 58 60 62 62 62 61 62 63 64
47 47 47 48 50 51 52 53 54 55 56 57 59 59 60 60 60 62 64 65 64 62 60 59 59 61 62 62 61 60 59 59 59 57 56 56 57 58 57 56 57 56 55 55 56 56 56 57 57 57 58 58 57 58 59 60 63 65 64 62 63 65 65 65 64 64 64 63 63 63 63 58 55 57 56 53 55 56 55 57 59 60 61 60 60 60 62 63
Wind_Direction
208 204 198 197 194 192 194 196 192 185 179 177 177 176 174 174 177 178 178 179 179 179 179 179 179 179 180 181 180 178 176 175 175 175 175 173 171 171 172 172 171 171 171 171 171 171 171 171 173 176 175 176 179 179 176 176 180 185 185 180 182 180 174 189 195 193 195 191 187 178 174 174 169 167 166 168 174 179 181 189 192 155 121 64 52 59 64 62
207 203 198 195 192 192 194 193 189 182 177 177 180 180 178 178 180 183 183 183 183 182 182 182 182 181 181 181 181 179 178 178 178 178 176 174 173 173 174 174 174 174 174 174 174 175 175 176 179 181 181 182 183 185 186 186 192 199 195 192 197 189 188 200 201 196 201 203 198 190 186 180 176 176 175 180 185 190 194 195 204 198 172 119 46 44 58 59
207 203 198 194 192 192 193 190 186 180 176 178 182 182 181 181 182 184 184 184 184 185 184 184 184 183 183 181 181 180 180 181 181 180 178 176 176 176 176 176 177 176 177 178 178 179 179 181 184 184 186 189 189 190 194 195 202 211 204 205 208 200 202 207 204 200 204 209 209 201 195 190 184 185 184 190 197 200 203 201 209 214 205 174 78 34 48 52
206 203 198 193 192 193 191 188 185 179 176 179 182 184 184 184 184 183 184 185 185 186 186 185 185 185 185 183 183 183 182 183 183 183 180 179 178 178 178 179 179 179 180 181 182 183 184 186 187 188 191 196 197 197 202 203 210 219 214 215 216 209 210 212 209 207 206 208 216 211 200 198 194 192 193 200 208 211 210 206 210 216 213 209 118 35 42 49
204 203 198 193 193 194 190 187 184 179 177 179 182 185 187 187 186 184 183 185 186 187 187 186 186 186 187 186 186 186 185 184 185 184 182 181 181 180 181 181 182 183 184 185 186 187 189 191 193 194 196 200 204 206 210 212 218 225 222 221 224 219 218 218 214 215 212 206 217 219 205 204 203 198 198 208 217 217 216 207 209 214 208 216 227 37 47 55
203 202 198 193 194 194 189 186 184 180 179 181 183 186 187 188 187 185 183 185 186 186 187 187 187 186 186 188 188 188 188 187 186 186 185 184 183 183 184 185 185 186 187 188 189 191 192 194 197 201 204 206 210 213 217 220 224 228 227 226 229 227 223 221 216 219 221 211 213 222 215 210 208 204 204 216 220 219 221 208 203 210 206 206 202 197 129 80
202 201 199 194 195 195 188 185 184 180 181 183 184 187 188 188 187 186 184 184 185 185 187 188 187 187 186 187 188 189 189 188 188 188 188 187 186 186 187 188 189 190 190 191 193 194 196 198 201 205 210 214 218 221 225 228 230 232 231 230 232 230 226 222 217 217 223 220 214 218 220 215 210 207 209 222 226 222 222 211 199 201 201 200 191 192 185 106
201 201 200 196 196 196 189 185 183 182 183 185 186 188 188 188 187 187 184 183 184 184 186 187 187 187 187 188 188 189 189 189 189 190 190 190 190 190 190 190 191 193 194 195 196 198 199 202 206 209 214 219 223 227 230 232 234 234 233 231 232 232 229 225 221 218 221 223 219 219 221 219 215 212 212 223 231 226 217 211 202 197 195 197 191 189 189 140
201 200 200 197 198 198 190 185 184 183 185 187 188 189 189 188 187 186 184 183 183 184 184 186 187 186 187 188 189 189 189 190 190 191 192 192 193 193 194 194 195 196 197 199 200 202 203 206 209 213 217 221 224 228 231 233 234 234 233 231 231 233 233 228 224 222 222 223 222 220 221 220 217 216 218 223 226 220 210 207 204 201 196 196 197 194 194 192
200 199 200 198 198 200 193 186 186 185 186 188 189 190 190 189 187 186 185 183 183 183 183 184 185 186 186 187 189 189 189 190 191 192 193 194 195 196 197 198 199 200 201 202 204 205 207 210 213 215 219 222 225 229 231 232 233 233 233 233 232 233 234 231 227 225 224 224 224 222 222 222 219 220 221 218 218 213 202 200 199 202 201 198 202 204 206 218
201 199 199 198 198 201 196 189 188 186 187 188 189 189 189 188 188 186 186 185 183 183 183 183 184 186 187 188 189 190 190 191 192 193 194 196 197 198 200 201 202 203 205 206 207 209 211 213 216 218 220 223 225 228 231 231 231 232 233 235 235 234 233 232 229 228 227 225 226 224 223 224 222 221 213 207 213 205 193 197 199 201 204 202 207 216 222 230
200 200 198 198 198 200 198 192 190 188 187 188 188 188 188 188 188 188 187 187 185 184 184 185 186 186 188 190 191 191 191 192 193 194 195 197 198 199 201 203 205 206 208 209 211 212 214 215 217 220 222 224 225 227 230 230 231 233 235 237 237 235 233 232 230 229 228 227 227 226 223 225 224 221 212 207 211 202 191 196 202 204 208 212 218 226 230 234
200 199 198 198 198 199 199 195 192 189 188 189 189 188 188 189 189 189 189 188 187 186 187 188 189 189 190 193 193 192 193 193 194 195 196 197 199 200 202 204 206 208 209 211 212 214 216 217 219 220 221 224 226 228 231 231 231 233 235 236 235 232 231 230 229 229 229 227 228 226 223 226 227 223 219 214 210 204 199 199 203 209 216 227 235 239 242 240
200 200 198 199 198 198 200 197 194 191 189 189 190 189 189 189 190 190 190 190 190 189 189 190 192 193 194 195 195 194 195 196 196 197 198 199 200 202 203 205 207 208 210 212 213 215 217 219 220 221 221 223 227 229 231 232 232 233 233 233 232 230 229 228 228 228 229 227 228 225 223 227 228 225 222 217 210 206 206 208 210 216 223 235 247 252 253 247
200 200 199 199 198 197 199 199 197 193 191 190 191 191 191 191 191 191 192 192 193 192 191 191 193 195 196 198 197 197 198 198 199 199 200 201 202 203 205 206 208 209 210 212 214 216 218 219 220 221 222 224 227 229 231 232 233 233 232 231 230 229 227 227 227 227 228 228 228 225 223 228 228 225 223 218 214 212 212 216 219 223 229 238 249 257 259 253
200 200 200 199 199 198 198 200 198 195 192 191 192 192 192 192 192 192 193 193 194 196 195 195 195 196 198 200 199 200 200 200 202 202 203 204 205 206 206 208 209 210 211 212 214 216 218 219 220 221 223 225 227 229 231 232 232 232 230 229 228 228 226 226 226 227 229 228 228 226 223 227 228 226 226 221 220 219 218 221 225 231 237 242 248 254 259 257
200 200 200 200 200 199 199 199 199 196 194 193 194 194 194 194 194 195 195 194 195 197 198 199 197 197 199 200 200 201 203 203 204 204 205 206 207 208 209 210 211 212 213 214 215 217 218 219 220 221 223 225 228 230 232 232 231 230 229 226 226 226 225 226 227 227 230 229 228 226 224 228 230 229 229 225 222 223 223 226 230 237 244 248 251 254 255 256
200 201 201 200 200 200 200 200 200 197 195 196 196 196 196 196 196 196 197 197 196 198 200 200 200 200 200 200 200 202 204 204 205 205 206 207 207 208 210 210 211 213 214 215 216 217 218 219 220 221 223 226 229 231 231 230 229 227 227 225 225 226 225 227 228 228 230 231 230 228 224 229 233 233 232 229 225 224 225 229 233 239 245 249 251 254 255 255
200 201 202 201 201 201 200 200 201 199 197 197 198 197 197 197 198 198 198 198 199 200 201 201 202 203 202 202 202 203 204 205 206 207 207 207 208 209 209 210 211 211 212 214 215 216 217 218 220 222 224 227 228 227 227 226 226 226 226 226 225 226 226 227 228 229 230 231 231 228 224 227 234 235 233 231 227 225 228 232 235 240 244 247 248 250 253 255
200 202 203 203 202 202 201 200 201 201 200 199 200 200 199 199 200 199 199 200 201 203 203 203 204 205 204 205 205 205 205 206 207 208 208 208 208 209 209 210 210 210 211 212 213 214 216 218 220 221 223 224 224 224 225 225 225 225 227 228 227 226 225 226 228 229 230 230 230 228 225 225 232 234 234 234 230 226 230 235 238 241 244 246 246 245 248 251
199 201 203 204 203 203 202 201 201 202 202 201 201 201 202 202 202 202 200 201 204 205 206 205 207 207 207 207 207 207 207 207 207 208 208 208 208 208 209 209 210 210 211 212 213 215 217 219 221 221 222 223 224 225 226 226 225 226 227 229 229 229 227 227 229 230 232 232 231 231 228 225 230 234 234 236 233 228 231 236 240 244 246 248 247 245 245 247
199 201 203 204 204 203 203 202 201 201 202 203 203 203 204 204 205 204 203 204 207 208 208 208 208 209 209 209 209 209 209 209 209 209 209 209 209 209 209 209 209 210 211 212 214 216 219 220 221 222 223 224 225 226 227 228 227 228 229 230 232 232 231 230 230 231 233 233 233 234 233 228 229 234 235 238 236 230 233 237 240 245 248 250 250 249 250 252
200 201 203 205 205 204 204 203 203 202 202 203 204 204 205 206 207 207 206 206 208 210 211 210 210 211 210 211 212 211 212 212 211 211 211 210 210 210 210 210 211 211 212 213 215 217 219 220 221 223 224 225 225 226 227 228 229 229 230 231 233 234 234 233 232 233 233 234 234 236 237 232 231 234 234 237 237 234 237 239 239 243 245 248 251 252 254 256
202 203 203 205 206 205 205 204 204 203 203 203 203 205 206 207 209 210 209 208 208 210 211 212 212 213 213 213 213 214 214 213 212 212 212 212 212 212 211 212 212 212 213 214 216 217 218 220 222 223 224 226 226 227 228 229 230 231 231 232 234 235 236 236 235 235 234 235 235 238 239 234 231 235 233 235 238 236 240 243 242 243 244 247 250 252 253 254
203 204 205 206 206 206 206 206 205 205 204 204 204 204 206 208 209 211 212 211 210 211 211 212 213 214 214 214 214 215 215 215 214 214 213 213 213 212 213 213 213 214 214 215 216 218 219 221 223 224 226 227 229 230 230 231 232 233 233 234 235 235 236 237 237 237 236 236 236 240 243 236 228 233 234 234 238 238 240 243 243 246 249 250 252 254 256 257
203 204 205 206 208 207 207 207 207 207 206 205 205 205 206 208 210 212 214 214 212 212 212 212 213 214 215 216 216 216 216 216 216 215 215 216 215 215 215 215 215 216 217 217 218 219 221 223 224 226 227 229 230 232 233 234 235 235 236 237 237 237 238 239 239 239 238 238 239 241 246 242 228 229 235 235 237 239 241 243 244 246 250 252 254 256 259 262
206 205 206 207 208 209 209 208 208 208 208 207 206 206 207 208 210 211 213 215 214 213 213 214 214 215 216 217 218 218 218 218 217 218 217 218 218 218 219 218 218 219 219 220 221 222 223 225 227 228 229 231 232 234 235 236 237 237 238 239 240 240 240 241 241 241 240 240 241 242 247 249 235 223 231 237 237 239 241 245 247 248 250 253 256 259 261 263
209 208 208 208 208 209 210 210 210 209 210 210 209 208 209 209 210 211 212 215 216 214 214 215 215 217 218 218 219 219 220 219 220 221 220 221 221 221 222 221 222 223 223 222 223 224 226 228 230 231 232 232 233 235 236 237 238 239 240 241 242 242 242 242 242 243 242 241 242 243 247 253 246 224 226 236 239 241 243 245 248 250 251 254 258 261 262 264
211 210 210 210 210 210 211 211 211 211 211 211 211 210 210 211 211 211 212 215 217 216 216 217 217 218 219 220 220 220 221 221 221 222 222 223 223 223 224 224 225 226 225 224 225 225 226 229 231 232 233 233 234 235 237 238 240 241 241 242 243 244 244 244 244 244 245 244 243 245 246 253 253 238 228 235 239 242 244 245 248 250 253 255 257 260 262 265
210 211 212 212 212 212 212 213 212 212 212 213 213 212 212 213 213 213 213 215 217 217 217 218 218 220 221 222 222 221 222 222 223 224 224 224 225 225 226 226 227 228 228 228 228 228 229 231 233 234 235 236 237 238 239 241 243 243 244 244 244 245 245 246 247 248 248 247 246 247 247 251 256 249 237 237 240 243 246 246 248 251 253 255 257 259 262 265
212 212 212 213 213 213 212 213 213 213 214 214 215 214 213 214 215 216 215 216 218 218 217 219 219 221 222 224 225 224 224 224 224 225 226 226 227 227 227 228 229 230 231 231 231 232 232 234 236 238 239 241 241 242 242 243 244 245 246 246 246 247 247 248 249 250 250 250 249 250 249 249 254 256 252 247 244 244 247 249 250 252 253 254 256 258 260 263
212 214 214 214 213 213 213 213 214 214 215 215 216 216 216 216 216 216 216 216 219 219 218 219 220 222 223 224 225 225 226 226 227 228 228 229 229 230 230 232 232 234 234 235 236 236 237 237 238 239 240 241 241 241 242 243 244 245 247 248 249 250 250 250 251 251 251 251 252 253 252 250 252 257 260 258 254 250 249 252 254 255 256 257 259 261 262 263
207 210 214 216 214 214 213 213 214 215 215 216 216 217 218 218 218 218 217 217 220 221 219 220 221 221 223 225 226 226 226 227 227 229 230 231 232 232 232 233 234 235 236 238 238 238 239 239 238 239 240 241 241 242 243 244 245 246 247 249 250 251 252 252 251 252 252 253 254 254 255 253 252 255 259 262 264 262 258 258 259 259 260 261 262 264 266 267
207 206 210 214 215 216 216 215 215 215 216 216 217 217 219 220 219 219 219 219 221 222 221 221 222 221 223 224 225 227 227 227 228 229 230 231 232 233 234 235 235 236 236 238 239 239 239 239 239 239 240 241 242 243 244 244 244 245 246 247 249 251 253 254 253 253 253 253 254 255 255 256 256 256 258 262 266 267 266 263 262 263 263 264 265 266 267 268
212 211 212 214 214 215 216 218 217 217 217 218 219 219 220 221 220 220 221 221 222 223 223 222 223 223 223 224 225 226 227 228 229 229 231 232 233 234 235 236 237 238 239 240 242 243 243 243 242 242 242 242 242 242 242 243 244 245 246 248 251 253 254 254 255 255 255 254 253 254 256 257 259 259 259 261 264 266 268 266 265 266 267 267 268 268 268 268
214 215 218 219 218 216 216 217 218 218 218 218 220 221 221 221 222 222 223 223 223 224 225 224 225 225 225 226 226 227 228 229 229 230 231 232 234 234 235 237 238 239 240 241 243 244 245 246 245 244 245 244 244 244 244 244 245 247 248 250 252 253 253 254 256 256 256 255 254 255 256 258 261 261 261 262 263 265 268 270 270 270 270 270 270 270 270 271
218 219 221 222 222 222 220 218 217 218 220 220 221 223 222 222 223 224 224 225 224 225 226 226 226 227 228 228 228 229 230 231 231 232 232 233 234 235 236 238 239 240 240 241 241 242 243 244 244 244 244 244 244 245 244 245 246 248 249 250 250 250 251 252 254 255 256 257 258 257 257 258 259 260 262 263 264 265 268 271 273 273 272 272 272 272 272 272
219 220 221 219 219 220 220 220 218 217 218 221 223 223 223 223 224 225 225 226 226 227 228 228 227 228 229 229 230 231 232 233 234 234 234 235 236 236 237 239 240 241 242 242 242 242 243 244 244 244 244 244 244 245 246 247 248 249 250 250 249 250 252 253 254 256 257 259 260 259 258 257 256 258 261 263 264 265 266 268 270 271 272 273 274 274 274 273
216 217 217 216 215 215 217 221 223 222 220 221 221 221 222 223 224 225 225 226 227 227 229 230 229 229 230 230 231 232 233 234 235 236 236 237 238 238 239 240 241 242 242 243 244 244 244 245 245 246 246 246 246 247 249 251 251 251 250 250 250 252 253 254 255 256 257 259 260 260 259 257 256 257 259 261 263 265 266 266 267 269 271 272 273 274 275 275
213 214 216 216 216 215 216 219 223 225 225 224 224 223 222 222 223 225 224 225 227 228 229 230 230 229 230 231 231 232 233 234 235 236 237 238 238 238 239 240 241 242 242 243 243 244 244 245 246 247 247 247 248 250 251 251 251 251 251 251 251 252 254 254 255 256 256 257 259 260 259 259 258 257 257 259 261 263 265 267 268 269 271 272 274 275 275 276
211 212 214 216 216 215 216 217 218 221 225 226 226 227 225 223 224 227 226 226 227 228 229 230 231 230 230 231 232 233 233 233 234 235 236 237 238 238 238 239 240 240 241 242 243 244 245 246 246 246 247 248 250 250 249 248 248 249 249 250 251 251 252 253 253 254 254 254 255 257 259 260 259 258 258 259 261 262 264 266 268 270 271 273 274 274 275 276
214 213 213 212 212 213 214 217 217 217 220 222 223 225 226 224 225 227 230 230 229 230 231 232 232 232 232 231 232 233 233 234 234 235 236 237 237 237 237 238 238 239 240 241 243 244 245 245 246 246 247 248 248 247 247 247 247 247 248 249 250 250 250 251 252 253 253 253 254 256 259 261 262 260 260 261 262 264 264 265 267 269 271 272 273 273 274 275
220 217 215 213 210 210 212 215 217 216 217 219 221 223 225 224 224 224 226 229 230 231 231 232 233 233 233 233 233 234 235 235 234 234 235 236 236 237 237 237 237 238 239 240 241 241 241 242 244 246 246 246 246 246 246 247 247 248 249 249 249 249 250 251 252 252 252 253 255 257 259 262 263 263 263 264 265 266 266 266 267 267 268 268 269 270 271 272
225 223 221 218 215 213 213 214 216 218 219 220 220 222 224 225 224 223 223 225 228 230 230 231 231 232 233 233 234 235 236 237 236 235 235 235 235 236 237 238 238 237 238 239 240 241 241 242 244 245 245 245 245 246 247 249 250 250 251 251 250 251 252 252 253 255 255 257 259 259 260 262 263 263 264 264 265 265 266 266 267 267 267 268 268 269 270 271
227 226 225 223 221 219 217 216 215 216 218 221 222 223 224 225 226 225 223 224 225 227 229 230 231 232 234 233 233 234 236 237 237 237 236 236 236 236 237 237 238 238 238 238 239 239 241 242 243 244 245 246 248 249 252 254 255 254 254 255 255 255 255 256 256 256 257 259 260 260 261 263 263 263 263 263 264 265 266 267 267 267 267 268 268 269 270 271
227 227 228 227 226 225 222 220 219 217 216 219 221 223 225 226 227 226 224 224 225 226 227 230 231 232 233 233 232 232 235 236 235 236 236 237 236 236 236 237 238 239 240 239 239 240 241 242 243 244 246 248 250 251 252 253 253 253 253 253 254 254 254 254 254 254 257 258 257 258 262 264 262 263 265 266 267 267 267 268 268 268 268 268 268 269 270 272
229 229 229 229 229 228 226 224 223 221 218 217 218 219 222 225 226 226 225 224 225 226 227 228 230 231 232 233 233 233 235 236 235 234 234 235 236 237 237 237 238 239 240 241 241 241 241 242 243 244 246 248 249 249 250 250 250 250 250 250 251 252 253 253 254 255 258 258 257 260 263 264 263 263 265 266 267 267 268 269 269 269 270 271 272 271 271 271
230 230 230 230 230 230 230 228 226 225 223 222 220 217 217 219 221 224 225 225 225 225 226 226 227 230 232 234 234 234 235 236 236 234 234 235 236 236 237 237 238 239 241 242 243 244 243 243 244 245 246 247 248 249 249 250 251 251 251 251 252 252 253 255 257 259 260 260 261 262 263 263 263 263 264 265 266 267 268 269 269 270 271 272 272 272 272 272
231 232 232 232 232 231 231 230 229 229 228 227 226 223 220 219 219 220 222 223 224 225 226 227 227 229 230 232 233 234 235 236 237 236 237 238 239 240 239 239 240 241 242 243 244 245 245 245 245 245 246 247 248 249 250 251 252 252 253 253 253 254 256 257 259 260 260 261 263 263 263 263 264 264 265 266 267 267 267 267 267 268 268 269 270 271 272 272
232 233 234 234 234 232 232 231 231 231 231 231 230 228 226 225 223 222 222 222 222 223 225 227 228 230 231 232 233 234 235 238 239 239 239 240 243 245 245 244 244 245 245 246 246 246 247 247 246 246 246 246 247 249 250 251 253 254 254 255 255 257 257 258 259 260 261 263 265 265 265 265 266 266 266 266 266 265 265 266 267 267 267 268 268 270 271 272
232 233 234 235 236 235 234 232 232 232 232 233 233 232 232 231 230 229 228 227 226 225 224 225 226 228 229 230 232 234 237 240 241 242 242 241 241 242 242 243 245 245 245 246 246 246 246 247 248 248 248 248 248 249 249 251 252 252 253 255 257 258 259 260 261 262 264 265 266 265 266 267 267 267 265 264 264 265 265 266 266 267 267 267 267 268 269 271
233 233 234 235 235 236 236 235 235 235 233 233 234 234 234 234 233 233 233 232 231 230 228 227 227 227 226 226 229 232 233 234 235 237 240 241 241 240 239 240 241 241 242 244 247 249 250 251 251 252 253 251 249 250 251 251 251 250 252 256 258 259 260 261 262 263 264 265 265 265 266 267 266 266 265 264 264 265 265 265 265 265 266 267 267 268 269 271
Height
5725 5727 5729 5732 5736 5740 5743 5746 5749 5753 5756 5759 5763 5766 5770 5773 5777 5781 5784 5788 5791 5794 5798 5801 5803 5805 5808 5811 5814 5816 5819 5822 5825 5828 5830 5833 5836 5838 5841 5844 5847 5849 5852 5854 5857 5859 5862 5864 5866 5867 5869 5870 5872 5873 5875 5876 5877 5879 5880 5882 5883 5884 5885 5886 5886 5887 5888 5888 5889 5889 5890 5890 5891 5891 5892 5892 5892 5893 5893 5893 5893 5894 5894 5894 5894 5894 5894 5894
5723 5725 5728 5731 5734 5738 5741 5744 5748 5751 5754 5758 5762 5765 5769 5773 5777 5781 5784 5787 5791 5794 5797 5800 5803 5805 5807 5810 5813 5815 5818 5821 5824 5827 5829 5832 5834 5837 5840 5843 5846 5849 5851 5854 5856 5859 5861 5863 5865 5867 5868 5869 5871 5873 5874 5875 5876 5878 5880 5881 5882 5884 5884 5885 5885 5887 5887 5888 5888 5889 5890 5890 5891 5891 5891 5892 5892 5892 5893 5893 5893 5894 5894 5894 5894 5894 5894 5894
5722 5724 5726 5729 5733 5736 5739 5742 5746 5749 5753 5757 5761 5764 5768 5772 5776 5780 5783 5786 5790 5793 5796 5799 5802 5804 5806 5809 5812 5815 5818 5820 5823 5826 5829 5831 5833 5836 5839 5842 5845 5848 5850 5853 5855 5857 5860 5861 5864 5866 5868 5869 5870 5872 5873 5874 5876 5877 5879 5881 5881 5883 5883 5884 5885 5886 5887 5887 5888 5889 5889 5890 5890 5891 5891 5891 5892 5892 5892 5893 5893 5893 5894 5894 5894 5894 5894 5894
5720 5722 5725 5728 5731 5734 5737 5741 5744 5748 5752 5756 5759 5763 5766 5770 5774 5778 5781 5785 5789 5792 5795 5798 5800 5803 5806 5808 5811 5814 5816 5820 5822 5825 5828 5830 5832 5835 5838 5841 5844 5847 5849 5852 5854 5857 5859 5860 5863 5865 5866 5868 5870 5871 5872 5873 5875 5876 5878 5879 5880 5881 5882 5883 5884 5885 5886 5887 5887 5888 5889 5889 5890 5890 5891 5891 5891 5891 5892 5892 5892 5892 5893 5893 5894 5894 5894 5893
5719 5721 5723 5726 5729 5733 5736 5739 5743 5746 5750 5754 5758 5761 5765 5769 5772 5776 5780 5783 5787 5791 5794 5797 5799 5802 5805 5808 5810 5813 5816 5818 5821 5824 5827 5829 5832 5834 5837 5840 5843 5846 5848 5851 5853 5856 5858 5860 5862 5863 5865 5866 5868 5870 5871 5872 5874 5875 5878 5878 5879 5880 5881 5882 5883 5883 5885 5886 5886 5887 5888 5889 5889 5890 5890 5890 5890 5891 5891 5891 5892 5892 5892 5893 5893 5893 5893 5893
5717 5719 5722 5724 5727 5731 5734 5738 5742 5745 5749 5753 5757 5760 5763 5767 5771 5774 5778 5781 5785 5789 5792 5795 5798 5801 5804 5806 5809 5812 5815 5817 5820 5823 5826 5828 5830 5833 5837 5840 5842 5845 5848 5850 5852 5855 5857 5859 5861 5862 5864 5865 5867 5868 5870 5871 5873 5874 5876 5877 5877 5878 5880 5881 5882 5882 5883 5885 5885 5886 5887 5888 5888 5889 5889 5889 5890 5890 5890 5891 5891 5891 5892 5892 5893 5893 5893 5893
5715 5717 5720 5722 5725 5729 5732 5736 5740 5743 5747 5751 5755 5758 5762 5765 5769 5773 5776 5780 5783 5787 5791 5794 5797 5800 5803 5805 5808 5811 5814 5816 5819 5822 5825 5827 5829 5832 5835 5839 5842 5844 5847 5849 5851 5854 5856 5858 5859 5861 5863 5864 5866 5867 5868 5870 5871 5873 5875 5876 5876 5877 5878 5879 5881 5881 5882 5883 5884 5885 5886 5886 5887 5888 5889 5888 5889 5889 5889 5890 5890 5891 5891 5892 5892 5892 5892 5892
5713 5715 5718 5721 5723 5726 5730 5734 5738 5741 5745 5749 5753 5757 5760 5763 5767 5771 5775 5778 5782 5785 5789 5793 5796 5799 5802 5804 5807 5810 5813 5816 5818 5821 5824 5826 5829 5831 5834 5837 5840 5843 5846 5848 5850 5852 5855 5856 5858 5860 5862 5863 5865 5866 5867 5868 5870 5872 5873 5874 5874 5875 5876 5878 5879 5880 5881 5882 5883 5884 5884 5885 5886 5887 5888 5887 5887 5888 5888 5888 5889 5890 5890 5891 5891 5892 5892 5892
5710 5713 5716 5719 5721 5724 5728 5732 5736 5739 5743 5747 5751 5755 5758 5762 5765 5769 5773 5776 5780 5784 5787 5791 5794 5797 5800 5803 5806 5809 5812 5815 5817 5820 5822 5825 5828 5830 5833 5836 5839 5842 5844 5846 5849 5851 5853 5855 5857 5859 5860 5862 5863 5864 5865 5867 5869 5870 5871 5872 5873 5873 5874 5876 5877 5878 5879 5880 5882 5883 5883 5884 5885 5886 5887 5886 5887 5887 5887 5887 5888 5889 5889 5890 5890 5891 5891 5891
5707 5710 5714 5717 5720 5722 5726 5729 5733 5737 5742 5746 5749 5753 5757 5760 5764 5767 5771 5775 5779 5782 5786 5789 5793 5796 5799 5802 5805 5808 5810 5813 5816 5818 5821 5824 5826 5829 5832 5835 5838 5840 5843 5845 5847 5849 5851 5853 5855 5857 5858 5860 5861 5862 5864 5866 5867 5868 5869 5870 5871 5872 5873 5874 5876 5877 5878 5879 5880 5881 5882 5883 5884 5885 5885 5885 5886 5886 5887 5887 5887 5888 5888 5889 5890 5890 5890 5890
5705 5708 5711 5715 5717 5721 5724 5728 5731 5735 5740 5744 5748 5752 5755 5759 5762 5766 5770 5773 5777 5781 5784 5788 5791 5795 5798 5800 5803 5806 5809 5812 5814 5817 5820 5822 5825 5828 5831 5833 5836 5838 5841 5843 5845 5847 5849 5851 5853 5855 5856 5858 5859 5860 5862 5864 5865 5866 5867 5867 5869 5871 5872 5873 5874 5875 5876 5877 5878 5879 5880 5881 5882 5883 5884 5884 5884 5885 5886 5886 5887 5887 5888 5888 5889 5889 5889 5889
5701 5705 5709 5712 5715 5718 5722 5726 5729 5733 5737 5742 5746 5750 5753 5757 5761 5764 5768 5772 5775 5779 5782 5786 5789 5793 5796 5799 5801 5804 5807 5810 5813 5815 5818 5821 5824 5826 5829 5832 5834 5836 5839 5841 5843 5845 5847 5849 5851 5853 5854 5856 5857 5858 5860 5862 5863 5864 5865 5866 5868 5869 5870 5871 5872 5873 5874 5876 5877 5878 5879 5880 5881 5882 5882 5883 5883 5884 5885 5885 5886 5886 5887 5887 5887 5888 5888 5888
5698 5702 5706 5710 5713 5716 5720 5724 5727 5731 5735 5739 5743 5747 5751 5755 5759 5763 5766 5770 5773 5777 5780 5784 5788 5791 5794 5797 5800 5803 5806 5808 5811 5814 5816 5819 5822 5824 5827 5829 5832 5834 5837 5839 5841 5843 5845 5847 5849 5851 5852 5854 5855 5856 5858 5859 5861 5862 5863 5864 5866 5867 5868 5869 5870 5871 5872 5874 5875 5876 5877 5878 5879 5880 5881 5881 5882 5883 5884 5884 5885 5885 5885 5886 5886 5886 5887 5887
5696 5700 5704 5707 5711 5714 5718 5721 5725 5729 5733 5737 5741 5745 5749 5753 5757 5761 5765 5768 5772 5775 5778 5782 5785 5789 5792 5795 5798 5801 5804 5807 5809 5812 5815 5817 5820 5822 5825 5827 5830 5832 5835 5837 5839 5841 5843 5845 5847 5848 5850 5851 5853 5854 5856 5857 5858 5860 5861 5862 5864 5865 5866 5867 5869 5870 5871 5872 5873 5875 5876 5876 5877 5879 5879 5880 5881 5881 5882 5883 5884 5884 5884 5884 5884 5885 5885 5886
5693 5697 5701 5705 5709 5712 5715 5719 5723 5727 5731 5735 5739 5743 5747 5751 5755 5759 5763 5767 5770 5773 5776 5780 5783 5787 5790 5793 5796 5799 5802 5805 5808 5810 5813 5815 5818 5820 5823 5825 5828 5830 5833 5835 5837 5839 5841 5843 5845 5846 5848 5849 5850 5852 5853 5855 5856 5858 5859 5860 5862 5863 5864 5865 5867 5868 5869 5870 5872 5873 5874 5874 5876 5877 5877 5878 5879 5880 5881 5881 5882 5883 5883 5883 5883 5883 5884 5884
5690 5694 5699 5703 5706 5710 5713 5716 5720 5725 5729 5733 5737 5741 5745 5749 5753 5757 5760 5764 5768 5771 5774 5777 5781 5785 5788 5791 5794 5797 5800 5803 5805 5808 5811 5813 5816 5818 5820 5823 5825 5828 5830 5832 5834 5836 5838 5840 5842 5844 5846 5847 5848 5850 5851 5852 5854 5855 5857 5858 5859 5861 5862 5864 5865 5866 5867 5869 5870 5871 5872 5873 5874 5875 5875 5876 5877 5878 5879 5879 5880 5881 5881 5882 5882 5882 5882 5883
5687 5691 5696 5700 5704 5707 5711 5714 5718 5722 5727 5730 5735 5739 5742 5746 5750 5754 5758 5761 5765 5769 5772 5776 5779 5782 5785 5789 5792 5795 5798 5801 5803 5806 5808 5811 5813 5816 5818 5821 5823 5826 5828 5830 5832 5834 5836 5838 5840 5842 5843 5845 5846 5848 5849 5851 5852 5853 5854 5856 5857 5858 5860 5862 5863 5865 5866 5867 5868 5870 5871 5871 5872 5873 5873 5875 5876 5877 5877 5878 5878 5879 5879 5880 5880 5881 5881 5881
5684 5688 5693 5697 5701 5705 5708 5712 5716 5720 5724 5728 5732 5736 5740 5743 5747 5751 5755 5759 5763 5767 5770 5773 5777 5780 5783 5787 5790 5793 5796 5799 5801 5804 5806 5808 5811 5813 5816 5818 5821 5823 5825 5827 5830 5832 5834 5836 5837 5839 5841 5842 5844 5846 5847 5849 5850 5851 5852 5853 5855 5856 5858 5860 5861 5863 5864 5865 5866 5868 5869 5870 5870 5871 5872 5873 5874 5875 5876 5876 5877 5877 5877 5878 5878 5879 5879 5879
5681 5686 5690 5694 5698 5702 5705 5709 5713 5717 5721 5725 5728 5732 5736 5740 5744 5748 5752 5756 5760 5764 5767 5771 5775 5778 5782 5785 5788 5790 5793 5796 5799 5801 5804 5806 5808 5811 5813 5816 5818 5821 5823 5825 5827 5829 5831 5833 5835 5837 5839 5841 5842 5843 5844 5846 5847 5848 5849 5851 5853 5855 5856 5858 5859 5860 5861 5862 5864 5866 5867 5868 5868 5869 5870 5871 5872 5873 5874 5875 5875 5875 5876 5876 5877 5877 5877 5877
5678 5683 5687 5691 5695 5699 5703 5707 5710 5714 5718 5722 5726 5730 5733 5737 5741 5745 5749 5754 5757 5761 5765 5769 5773 5777 5780 5783 5785 5788 5791 5793 5796 5799 5801 5804 5806 5809 5811 5813 5816 5818 5820 5822 5824 5827 5829 5831 5833 5835 5836 5838 5839 5840 5841 5843 5844 5846 5847 5848 5850 5852 5854 5855 5856 5857 5858 5860 5861 5862 5864 5866 5866 5867 5868 5868 5870 5872 5872 5873 5873 5873 5874 5874 5875 5876 5876 5876
5675 5679 5684 5688 5692 5696 5700 5704 5708 5711 5715 5719 5724 5728 5732 5736 5740 5744 5748 5751 5754 5758 5762 5766 5770 5773 5777 5780 5782 5785 5788 5791 5793 5796 5799 5801 5803 5806 5808 5811 5813 5815 5817 5820 5822 5824 5826 5828 5830 5831 5833 5834 5836 5837 5838 5840 5842 5843 5845 5846 5848 5850 5851 5853 5853 5854 5855 5857 5858 5859 5861 5863 5864 5865 5865 5866 5868 5870 5870 5870 5871 5871 5872 5872 5873 5873 5873 5874
5671 5675 5680 5684 5688 5692 5697 5701 5704 5708 5712 5717 5721 5726 5730 5734 5738 5742 5745 5749 5753 5756 5759 5763 5766 5770 5774 5777 5779 5782 5785 5788 5790 5793 5796 5798 5801 5803 5806 5808 5810 5812 5815 5817 5819 5822 5824 5825 5827 5828 5830 5832 5833 5834 5836 5837 5839 5841 5843 5844 5845 5847 5849 5850 5851 5852 5853 5854 5856 5856 5858 5861 5862 5862 5863 5864 5866 5868 5868 5868 5869 5869 5870 5870 5870 5871 5871 5872
5667 5672 5676 5680 5684 5689 5693 5697 5701 5705 5709 5714 5718 5722 5726 5730 5734 5738 5741 5745 5749 5753 5756 5760 5763 5767 5770 5774 5777 5780 5782 5785 5788 5791 5793 5796 5798 5801 5803 5805 5807 5810 5812 5814 5817 5819 5821 5822 5824 5826 5827 5829 5830 5832 5833 5835 5837 5838 5840 5841 5842 5844 5845 5847 5848 5849 5851 5852 5853 5853 5854 5858 5860 5860 5861 5862 5863 5866 5865 5866 5867 5867 5868 5868 5868 5868 5869 5869
5664 5669 5673 5677 5681 5685 5689 5693 5697 5702 5706 5710 5714 5718 5723 5727 5730 5734 5737 5741 5744 5748 5752 5756 5760 5763 5767 5770 5774 5776 5779 5782 5785 5788 5790 5793 5795 5798 5800 5802 5804 5807 5809 5811 5813 5815 5817 5818 5821 5823 5824 5825 5827 5829 5830 5832 5834 5835 5837 5838 5839 5841 5842 5844 5845 5847 5848 5849 5850 5850 5851 5855 5857 5857 5858 5860 5861 5863 5863 5863 5864 5865 5865 5865 5866 5866 5866 5866
5661 5665 5670 5674 5678 5682 5686 5690 5694 5698 5702 5706 5710 5715 5719 5723 5727 5730 5734 5737 5740 5744 5747 5751 5755 5759 5763 5767 5770 5773 5776 5779 5782 5784 5787 5789 5792 5794 5796 5799 5801 5804 5806 5808 5810 5812 5813 5815 5818 5820 5821 5823 5824 5826 5827 5829 5831 5832 5834 5835 5836 5838 5839 5840 5842 5843 5845 5845 5847 5848 5847 5851 5855 5854 5856 5858 5859 5860 5860 5860 5861 5862 5863 5863 5863 5864 5863 5864
5658 5662 5667 5671 5675 5679 5683 5687 5691 5695 5699 5703 5707 5711 5715 5719 5723 5726 5730 5733 5736 5739 5743 5748 5751 5755 5759 5763 5766 5769 5772 5775 5778 5781 5784 5786 5788 5791 5793 5796 5798 5800 5803 5805 5806 5809 5811 5812 5814 5816 5818 5820 5821 5823 5825 5826 5828 5829 5830 5832 5833 5835 5836 5837 5839 5840 5841 5842 5844 5845 5844 5846 5851 5852 5854 5855 5856 5857 5857 5857 5859 5860 5860 5860 5860 5861 5861 5861
5655 5659 5663 5667 5672 5676 5680 5684 5688 5692 5696 5700 5704 5708 5711 5715 5718 5722 5727 5728 5730 5735 5740 5744 5748 5752 5756 5759 5762 5766 5768 5772 5775 5778 5780 5783 5785 5788 5790 5793 5795 5797 5799 5801 5804 5806 5808 5810 5812 5813 5815 5817 5819 5820 5822 5823 5824 5826 5827 5829 5830 5832 5833 5834 5835 5837 5838 5839 5841 5842 5842 5842 5847 5851 5852 5852 5853 5854 5854 5855 5856 5857 5857 5857 5857 5858 5858 5858
5652 5656 5660 5664 5668 5672 5676 5681 5685 5689 5693 5697 5701 5705 5708 5711 5715 5719 5721 5721 5725 5732 5736 5740 5745 5748 5751 5755 5759 5762 5765 5769 5772 5774 5777 5780 5782 5785 5787 5790 5792 5793 5796 5798 5801 5804 5806 5807 5808 5810 5812 5814 5815 5817 5818 5820 5821 5822 5824 5825 5827 5828 5830 5831 5832 5833 5834 5836 5837 5839 5840 5838 5841 5848 5850 5849 5850 5851 5852 5853 5854 5854 5854 5855 5855 5855 5855 5854
5649 5654 5657 5661 5665 5669 5673 5678 5682 5686 5690 5694 5698 5701 5704 5707 5710 5713 5714 5716 5722 5728 5732 5736 5741 5744 5747 5751 5755 5759 5762 5765 5767 5770 5774 5776 5778 5781 5784 5786 5788 5789 5792 5795 5797 5799 5801 5803 5804 5806 5808 5810 5812 5813 5815 5816 5817 5819 5821 5822 5824 5825 5826 5827 5828 5829 5830 5832 5834 5836 5838 5835 5836 5843 5847 5847 5847 5848 5849 5850 5851 5851 5852 5852 5852 5851 5851 5850
5646 5650 5654 5659 5662 5666 5670 5674 5678 5682 5686 5689 5693 5696 5700 5703 5706 5707 5708 5712 5719 5724 5729 5733 5737 5740 5744 5748 5751 5755 5758 5760 5763 5766 5768 5771 5774 5777 5779 5782 5784 5785 5788 5791 5793 5795 5798 5800 5801 5803 5805 5807 5809 5810 5811 5813 5814 5816 5817 5818 5820 5821 5822 5823 5824 5826 5827 5828 5831 5833 5834 5834 5831 5835 5843 5844 5844 5845 5845 5847 5847 5848 5849 5848 5848 5848 5847 5847
5644 5647 5651 5655 5658 5662 5667 5670 5674 5679 5682 5685 5688 5691 5695 5698 5700 5702 5705 5713 5717 5720 5724 5728 5732 5737 5741 5745 5748 5752 5754 5757 5759 5761 5764 5767 5769 5772 5775 5777 5779 5782 5784 5787 5789 5792 5794 5796 5798 5800 5802 5804 5806 5807 5808 5809 5810 5811 5812 5814 5815 5817 5819 5820 5821 5823 5823 5825 5828 5828 5830 5831 5827 5830 5837 5839 5840 5842 5842 5843 5844 5845 5844 5844 5844 5844 5844 5844
5641 5644 5647 5650 5654 5658 5662 5666 5670 5674 5677 5680 5683 5686 5690 5692 5693 5697 5706 5713 5713 5715 5721 5725 5729 5734 5737 5740 5743 5747 5750 5752 5755 5758 5760 5763 5765 5769 5772 5774 5777 5779 5781 5784 5787 5789 5791 5793 5795 5797 5799 5800 5801 5802 5803 5804 5806 5807 5808 5810 5811 5813 5815 5817 5818 5819 5820 5822 5823 5823 5825 5827 5826 5828 5831 5831 5834 5838 5839 5839 5840 5840 5840 5840 5840 5839 5839 5839
5637 5641 5643 5645 5650 5654 5657 5662 5666 5669 5672 5675 5678 5681 5684 5685 5690 5698 5705 5708 5707 5711 5719 5722 5726 5730 5732 5735 5738 5742 5745 5747 5750 5754 5756 5758 5761 5764 5767 5770 5773 5775 5778 5781 5782 5784 5786 5788 5791 5793 5794 5796 5797 5798 5799 5801 5802 5803 5805 5806 5807 5809 5810 5812 5814 5814 5816 5819 5818 5818 5820 5821 5824 5827 5827 5826 5828 5831 5834 5835 5835 5834 5835 5835 5834 5834 5834 5834
5634 5637 5639 5641 5646 5650 5654 5658 5661 5664 5667 5670 5673 5676 5677 5681 5690 5698 5700 5701 5703 5708 5715 5718 5721 5724 5726 5730 5734 5737 5740 5742 5745 5748 5750 5753 5756 5759 5762 5766 5768 5771 5774 5775 5776 5779 5781 5783 5787 5789 5790 5792 5793 5794 5795 5796 5797 5799 5800 5801 5803 5805 5806 5807 5808 5809 5813 5814 5813 5814 5815 5816 5821 5824 5824 5824 5824 5824 5827 5829 5828 5828 5829 5829 5829 5828 5828 5828
5631 5634 5635 5638 5643 5646 5650 5652 5656 5660 5663 5666 5668 5669 5673 5681 5689 5692 5692 5696 5701 5705 5709 5713 5715 5718 5721 5724 5727 5730 5733 5737 5740 5743 5745 5748 5752 5755 5759 5761 5764 5767 5769 5771 5773 5775 5776 5779 5783 5784 5785 5788 5788 5789 5790 5791 5792 5794 5796 5797 5800 5802 5802 5801 5802 5805 5808 5808 5808 5810 5811 5813 5817 5819 5821 5821 5820 5820 5820 5821 5822 5822 5823 5823 5823 5823 5822 5822
5627 5630 5632 5636 5640 5643 5646 5648 5652 5655 5658 5661 5663 5665 5673 5680 5684 5686 5688 5692 5697 5700 5703 5706 5709 5712 5716 5719 5722 5725 5728 5731 5734 5737 5740 5744 5747 5750 5753 5756 5760 5762 5765 5767 5768 5770 5771 5774 5777 5778 5780 5782 5782 5783 5785 5786 5788 5790 5792 5794 5796 5796 5796 5796 5797 5800 5801 5801 5804 5807 5808 5812 5814 5814 5816 5817 5816 5816 5814 5814 5816 5816 5816 5816 5816 5816 5816 5816
5623 5626 5629 5633 5636 5639 5642 5645 5647 5650 5653 5655 5658 5664 5672 5675 5677 5681 5685 5688 5693 5695 5696 5700 5704 5708 5711 5714 5718 5721 5724 5726 5728 5731 5736 5739 5741 5745 5749 5752 5755 5757 5760 5762 5762 5764 5765 5767 5769 5772 5774 5775 5776 5778 5779 5782 5784 5785 5788 5790 5790 5789 5790 5791 5792 5794 5795 5794 5798 5803 5805 5809 5810 5809 5812 5812 5812 5812 5811 5809 5809 5809 5809 5809 5809 5809 5810 5809
5618 5622 5625 5629 5632 5634 5638 5641 5643 5647 5649 5649 5654 5662 5666 5669 5672 5676 5680 5683 5687 5689 5691 5695 5700 5703 5706 5710 5714 5717 5719 5720 5723 5727 5731 5733 5737 5742 5746 5748 5750 5753 5755 5755 5755 5757 5759 5761 5763 5765 5767 5769 5770 5771 5773 5777 5779 5780 5782 5784 5784 5783 5784 5786 5786 5788 5790 5789 5792 5797 5799 5802 5806 5807 5808 5808 5807 5807 5806 5806 5805 5803 5802 5802 5802 5802 5802 5802
5614 5617 5620 5624 5627 5630 5633 5636 5639 5643 5643 5644 5650 5655 5659 5663 5666 5669 5674 5678 5680 5683 5686 5689 5694 5698 5700 5704 5708 5711 5713 5716 5719 5722 5725 5728 5733 5739 5742 5743 5745 5747 5748 5748 5750 5751 5754 5755 5756 5759 5761 5763 5764 5766 5770 5773 5774 5774 5776 5777 5778 5779 5779 5781 5781 5782 5785 5784 5786 5790 5791 5795 5802 5805 5804 5802 5802 5802 5801 5801 5800 5799 5798 5797 5796 5795 5795 5794
5609 5612 5615 5619 5622 5626 5629 5632 5635 5636 5636 5641 5647 5650 5654 5658 5660 5663 5668 5672 5674 5677 5680 5683 5687 5692 5695 5699 5701 5704 5707 5711 5713 5716 5719 5723 5728 5733 5736 5736 5738 5741 5741 5741 5743 5744 5746 5748 5751 5753 5754 5755 5759 5763 5766 5767 5767 5768 5770 5771 5773 5774 5773 5774 5775 5776 5779 5779 5780 5781 5783 5789 5797 5800 5799 5798 5798 5797 5796 5795 5795 5794 5793 5791 5791 5790 5789 5788
5604 5608 5612 5615 5618 5622 5625 5627 5629 5630 5631 5637 5643 5645 5649 5654 5656 5659 5663 5666 5669 5672 5674 5677 5681 5685 5689 5692 5695 5698 5702 5704 5707 5710 5713 5717 5723 5726 5729 5730 5732 5733 5733 5734 5736 5738 5740 5742 5744 5746 5747 5751 5756 5758 5758 5759 5760 5761 5762 5764 5767 5767 5767 5767 5767 5769 5771 5771 5773 5774 5775 5785 5792 5792 5793 5793 5792 5792 5792 5791 5789 5788 5787 5786 5785 5784 5782 5782
5598 5602 5606 5609 5612 5616 5619 5620 5622 5624 5627 5632 5637 5640 5644 5649 5653 5655 5659 5662 5664 5667 5670 5672 5676 5680 5683 5686 5689 5692 5695 5698 5701 5704 5707 5712 5717 5719 5721 5723 5725 5726 5727 5728 5731 5733 5734 5735 5736 5739 5742 5747 5749 5748 5749 5752 5753 5753 5754 5757 5759 5758 5759 5759 5759 5762 5763 5763 5767 5768 5768 5779 5787 5786 5787 5788 5787 5787 5787 5785 5784 5783 5782 5781 5779 5778 5776 5775
5592 5595 5599 5603 5606 5609 5610 5613 5616 5620 5624 5627 5631 5634 5637 5641 5646 5650 5653 5656 5658 5661 5664 5667 5670 5674 5677 5681 5684 5686 5689 5692 5695 5699 5703 5707 5709 5711 5713 5716 5718 5719 5721 5722 5724 5726 5725 5725 5729 5732 5735 5737 5738 5739 5742 5744 5744 5745 5747 5750 5751 5751 5752 5752 5752 5755 5755 5756 5763 5762 5762 5774 5782 5780 5781 5782 5781 5781 5779 5779 5779 5777 5776 5775 5773 5772 5770 5769
5585 5588 5591 5595 5599 5600 5602 5607 5612 5617 5620 5623 5626 5629 5631 5635 5639 5643 5647 5650 5653 5655 5658 5661 5664 5667 5671 5675 5678 5681 5683 5685 5688 5693 5697 5699 5702 5704 5707 5709 5711 5712 5714 5716 5718 5719 5718 5719 5723 5725 5726 5728 5729 5731 5734 5737 5737 5739 5741 5744 5745 5747 5748 5746 5748 5749 5747 5753 5760 5754 5755 5769 5776 5774 5775 5775 5773 5773 5772 5772 5772 5770 5769 5768 5766 5765 5764 5764
5578 5581 5584 5588 5591 5592 5596 5603 5608 5611 5614 5618 5622 5624 5627 5630 5634 5638 5642 5645 5648 5650 5653 5656 5659 5663 5666 5669 5672 5675 5677 5680 5683 5686 5690 5693 5696 5698 5700 5702 5704 5706 5708 5711 5712 5712 5712 5713 5716 5716 5717 5719 5723 5726 5730 5734 5733 5733 5737 5740 5741 5742 5742 5742 5743 5742 5741 5749 5752 5745 5749 5763 5768 5766 5766 5766 5767 5767 5765 5765 5764 5763 5762 5760 5759 5758 5758 5758
5572 5574 5578 5581 5584 5587 5592 5597 5601 5604 5608 5612 5615 5618 5622 5626 5630 5633 5636 5638 5641 5645 5649 5651 5654 5657 5659 5661 5666 5669 5671 5674 5677 5679 5683 5686 5688 5691 5693 5696 5698 5699 5702 5704 5705 5705 5705 5706 5708 5710 5711 5714 5719 5721 5725 5727 5725 5726 5730 5732 5733 5733 5734 5734 5733 5732 5737 5743 5740 5738 5746 5754 5758 5760 5759 5759 5761 5760 5758 5758 5757 5755 5753 5752 5752 5753 5753 5752
5565 5569 5572 5575 5578 5581 5586 5591 5595 5600 5604 5606 5608 5612 5617 5620 5623 5626 5629 5633 5636 5639 5642 5645 5647 5650 5653 5657 5661 5664 5665 5667 5669 5673 5677 5679 5681 5684 5687 5689 5691 5693 5695 5697 5697 5698 5698 5699 5702 5705 5706 5709 5712 5713 5715 5716 5716 5718 5722 5723 5724 5725 5725 5724 5723 5727 5734 5732 5728 5738 5744 5742 5748 5755 5753 5752 5754 5752 5750 5751 5750 5747 5745 5745 5745 5745 5745 5745
5560 5563 5566 5568 5572 5576 5581 5586 5590 5593 5596 5598 5602 5607 5611 5613 5616 5620 5625 5628 5630 5632 5635 5637 5641 5645 5649 5653 5655 5657 5659 5660 5663 5668 5671 5673 5676 5678 5680 5682 5684 5686 5688 5689 5689 5690 5691 5694 5698 5700 5701 5703 5705 5705 5707 5708 5709 5711 5714 5715 5717 5718 5717 5717 5718 5725 5728 5721 5722 5736 5737 5730 5740 5749 5745 5745 5748 5745 5745 5745 5742 5740 5739 5738 5737 5736 5736 5737
5555 5557 5559 5562 5566 5571 5575 5579 5582 5583 5586 5590 5594 5599 5604 5608 5611 5616 5620 5621 5623 5626 5628 5632 5638 5642 5644 5646 5648 5649 5652 5654 5658 5663 5666 5668 5670 5672 5674 5676 5677 5679 5681 5682 5682 5683 5684 5688 5692 5693 5694 5696 5698 5699 5701 5701 5701 5703 5705 5708 5710 5711 5712 5712 5714 5718 5717 5712 5718 5728 5725 5723 5734 5740 5737 5740 5741 5738 5738 5737 5734 5734 5732 5730 5729 5728 5729 5729
5549 5551 5553 5556 5560 5564 5567 5571 5573 5576 5579 5582 5586 5592 5598 5603 5607 5610 5612 5614 5617 5621 5624 5628 5635 5637 5637 5639 5640 5643 5647 5651 5655 5659 5661 5664 5665 5666 5667 5669 5671 5673 5674 5674 5675 5676 5678 5681 5684 5686 5687 5689 5691 5693 5694 5694 5694 5695 5697 5700 5703 5704 5704 5705 5707 5710 5708 5707 5713 5717 5714 5718 5728 5730 5730 5734 5731 5728 5729 5728 5726 5726 5724 5723 5724 5724 5722 5720
5543 5545 5548 5550 5553 5556 5559 5563 5566 5568 5572 5575 5582 5589 5593 5597 5602 5604 5604 5607 5610 5614 5618 5625 5629 5629 5629 5631 5632 5638 5645 5648 5650 5652 5654 5655 5658 5659 5659 5661 5663 5665 5666 5667 5668 5669 5672 5673 5676 5679 5679 5681 5686 5687 5686 5688 5687 5686 5689 5694 5697 5697 5697 5698 5701 5703 5702 5702 5705 5705 5705 5713 5721 5719 5720 5724 5722 5719 5722 5721 5718 5716 5716 5716 5718 5718 5715 5713
5537 5540 5542 5544 5546 5548 5552 5556 5558 5561 5566 5573 5580 5584 5586 5589 5593 5593 5594 5599 5604 5609 5614 5618 5619 5618 5618 5622 5629 5638 5642 5641 5642 5644 5644 5646 5649 5651 5653 5655 5657 5658 5660 5661 5661 5663 5665 5666 5670 5671 5670 5675 5680 5678 5679 5681 5676 5677 5686 5693 5693 5691 5690 5692 5694 5696 5696 5695 5695 5695 5698 5707 5711 5709 5711 5716 5714 5713 5714 5713 5708 5707 5708 5710 5711 5710 5708 5707